sat.trackr.live / text

‹ back to catalog

STARLINK-30766

NORAD 58125 · 2023-162H

PAYLOAD ACTIVE UNKNOWN

§ Identity

Operator
Country
US
Launch date
2023-10-22
Launch site
AFETR
Launch vehicle
Mass (kg)
RCS (m²)

Purposes: comms

External: N2YO · Heavens-Above · Gunter

§ Orbital elements

Epoch: 2026-05-25T04:28:56.045856Z

Period
94.27 min
Inclination
43.0025°
Eccentricity
0.0001112
Mean motion
15.27580299 rev/d
Perigee alt
482.3 km
Apogee alt
483.8 km
Semi-major
6,861.2 km
B*
9.1146e-5
RAAN
57.3006°
Arg perigee
256.8746°
Mean anomaly
103.1982°
Rev number
14,404

§ Raw data

STARLINK-307661 58125U 23162H   26145.18675979  .00002247  00000+0  91146-4 0  99942 58125  43.0025  57.3006 0001112 256.8746 103.1982 15.27580299144046

JSON: /api/v1/satellites/58125 · /tle

For live sub-satellite position, see the globe view (requires WebGL).

§ Visibility from observer

Set your observer location to see the next 7 days of passes ≥ 10°. The values pass through the URL so the page stays shareable.

No JS? Fill the form by hand. The geolocation button needs JavaScript.